LIFTR23 EGPF-EINN

Flight info

Callsign LIFTR23
Flight time N/A
Altitude 38000
Route NORBO L186 TRN P600 BLACA/N0439F240 P620 NIMAT DCT DUB DCT PELIG DCT DIGAN DIGAN2E
Aircraft C17/H-SDE1E2FGHIJ5RTUWXY/LB1D1

Departure

Time 2026-04-30 22:00
Airport Glasgow Airport (EGPF)

Arrival

Time N/A
Airport Shannon Airport (EINN)
Time Latitude Longitude Altitude Speed Heading
2026-04-30 21:27 55.86892 -4.43182 27 ft 0 kts 74°
2026-04-30 21:51 55.86893 -4.43180 27 ft 1 kts 69°
2026-04-30 21:51 55.86912 -4.43195 26 ft 8 kts 298°
2026-04-30 21:51 55.86908 -4.43238 26 ft 0 kts 225°
2026-04-30 21:52 55.86889 -4.43249 26 ft 7 kts 188°
2026-04-30 21:52 55.86826 -4.43261 28 ft 11 kts 207°
2026-04-30 21:53 55.86781 -4.43424 26 ft 19 kts 252°
2026-04-30 21:53 55.86736 -4.43692 26 ft 26 kts 250°
2026-04-30 21:53 55.86618 -4.43966 32 ft 28 kts 226°
2026-04-30 21:53 55.86482 -4.44212 30 ft 27 kts 227°
2026-04-30 21:54 55.86352 -4.44459 28 ft 27 kts 226°
2026-04-30 21:54 55.86258 -4.44662 32 ft 12 kts 261°
2026-04-30 21:54 55.86289 -4.44771 28 ft 0 kts 316°
2026-04-30 21:57 55.86291 -4.44774 28 ft 3 kts 316°
2026-04-30 21:57 55.86350 -4.44841 29 ft 15 kts 355°
2026-04-30 21:57 55.86403 -4.44797 29 ft 0 kts 44°
2026-04-30 21:58 55.86415 -4.44775 29 ft 20 kts 44°
2026-04-30 21:59 55.86690 -4.44265 30 ft 91 kts 46°
2026-04-30 21:59 55.87253 -4.43205 85 ft 137 kts 47°
2026-04-30 21:59 55.87933 -4.41877 298 ft 152 kts 48°
2026-04-30 22:00 55.89402 -4.38975 1725 ft 138 kts 52°
2026-04-30 22:00 55.90716 -4.36340 2531 ft 205 kts 54°
2026-04-30 22:00 55.91685 -4.34247 3256 ft 207 kts 54°
2026-04-30 22:01 55.92533 -4.32463 4801 ft 186 kts 52°
2026-04-30 22:01 55.93424 -4.30592 5422 ft 212 kts 53°
2026-04-30 22:01 55.94357 -4.28608 6509 ft 194 kts 54°
2026-04-30 22:01 55.95189 -4.26864 7957 ft 175 kts 55°
2026-04-30 22:02 55.95972 -4.25232 8955 ft 183 kts 56°
2026-04-30 22:02 55.96862 -4.23317 9523 ft 214 kts 57°
2026-04-30 22:02 55.97806 -4.21259 10649 ft 206 kts 57°
2026-04-30 22:02 55.98705 -4.19325 11663 ft 218 kts 57°
2026-04-30 22:03 55.99806 -4.16833 11430 ft 292 kts 57°
2026-04-30 22:03 56.01125 -4.13745 11037 ft 327 kts 57°
2026-04-30 22:03 56.02523 -4.10462 10210 ft 333 kts 57°
2026-04-30 22:03 56.03854 -4.07363 10518 ft 295 kts 57°
2026-04-30 22:04 56.05201 -4.04923 10861 ft 263 kts 32°
2026-04-30 22:04 56.06889 -4.04188 10775 ft 246 kts 351°
2026-04-30 22:04 56.09086 -4.07771 9768 ft 214 kts 265°
2026-04-30 22:05 56.08852 -4.10272 9393 ft 194 kts 244°
2026-04-30 22:05 56.08437 -4.12426 9386 ft 183 kts 243°
2026-04-30 22:05 56.07975 -4.14657 9544 ft 196 kts 242°
2026-04-30 22:05 56.07495 -4.16923 10072 ft 192 kts 242°
2026-04-30 22:06 56.06991 -4.19281 10616 ft 217 kts 242°
2026-04-30 22:06 56.05630 -4.25078 11866 ft 280 kts 239°
2026-04-30 22:06 56.04781 -4.28189 12404 ft 280 kts 238°
2026-04-30 22:07 56.03896 -4.31348 12806 ft 286 kts 238°
2026-04-30 22:07 56.02998 -4.34533 13190 ft 286 kts 238°
2026-04-30 22:07 56.02099 -4.37708 13557 ft 286 kts 237°
2026-04-30 22:07 56.01193 -4.40894 13958 ft 288 kts 237°
2026-04-30 22:08 56.00278 -4.44097 14319 ft 290 kts 237°
2026-04-30 22:08 55.99358 -4.47309 14677 ft 290 kts 237°
2026-04-30 22:08 55.98431 -4.50526 15032 ft 292 kts 237°
2026-04-30 22:08 55.97502 -4.53733 15422 ft 296 kts 236°
2026-04-30 22:09 55.96544 -4.57012 15790 ft 298 kts 236°
2026-04-30 22:09 55.95574 -4.60294 16159 ft 299 kts 236°
2026-04-30 22:09 55.94597 -4.63574 16542 ft 301 kts 236°
2026-04-30 22:09 55.93938 -4.65761 16787 ft 303 kts 235°
2026-04-30 22:10 55.92597 -4.70171 17301 ft 304 kts 235°
2026-04-30 22:10 55.91925 -4.72367 17560 ft 305 kts 235°
2026-04-30 22:10 55.90893 -4.75703 17949 ft 309 kts 234°
2026-04-30 22:10 55.89488 -4.80183 18472 ft 314 kts 234°
2026-04-30 22:11 55.87669 -4.85896 19086 ft 316 kts 234°
2026-04-30 22:11 55.86592 -4.89243 19429 ft 315 kts 233°
2026-04-30 22:11 55.85490 -4.92643 19787 ft 319 kts 233°
2026-04-30 22:12 55.84365 -4.96078 20137 ft 321 kts 233°
2026-04-30 22:12 55.83230 -4.99514 20519 ft 321 kts 233°
2026-04-30 22:12 55.82089 -5.02942 20895 ft 322 kts 233°
2026-04-30 22:12 55.80949 -5.06339 21270 ft 325 kts 233°
2026-04-30 22:13 55.79775 -5.09802 21706 ft 327 kts 233°
2026-04-30 22:13 55.78588 -5.13270 22090 ft 329 kts 233°
2026-04-30 22:13 55.77385 -5.16756 22468 ft 331 kts 233°
2026-04-30 22:13 55.76188 -5.20198 22852 ft 332 kts 233°
2026-04-30 22:14 55.74957 -5.23708 23264 ft 335 kts 233°
2026-04-30 22:14 55.73711 -5.27230 23680 ft 338 kts 233°
2026-04-30 22:14 55.72454 -5.30771 24030 ft 340 kts 233°
2026-04-30 22:14 55.71188 -5.34338 24390 ft 341 kts 233°
2026-04-30 22:15 55.69936 -5.37870 24731 ft 343 kts 233°
2026-04-30 22:15 55.68660 -5.41471 25083 ft 346 kts 233°
2026-04-30 22:15 55.67375 -5.45097 25432 ft 349 kts 233°
2026-04-30 22:15 55.66081 -5.48751 25814 ft 351 kts 233°
2026-04-30 22:16 55.64780 -5.52429 26185 ft 352 kts 233°
2026-04-30 22:16 55.63493 -5.56073 26555 ft 353 kts 233°
2026-04-30 22:17 55.59452 -5.67239 27736 ft 361 kts 232°
2026-04-30 22:17 55.58066 -5.70958 28125 ft 362 kts 231°